COSMOS 2251 DEB, 34883

Orbit data source: Space-Track

COSMOS 2251 DEB, 34883 is space debris in LEO originally from a launch on Wed, 16 Jun 1993 UTC launched from the Plesetsk Missile And Space Complex (PKMTR). The debris from Iridium 33, an American commercial communications satellite, has been tracked extensively since its accidental collision with the defunct Russian satellite Cosmos 2251 in 2009. This event, occurring at high speed in low Earth orbit (LEO), generated thousands of pieces of space debris, significantly increasing the risk of further collisions. The Iridium 33 debris cloud has impacted space traffic management and orbital debris mitigation strategies, making it a subject of ongoing study in space situational awareness.

Loading next visibility...
Identifier
34883, 1993-036ACW
Orbit
LEO
Country
Flag of CISCIS
Related business
Manufacturer
Unknown
Mission
Spacecraft
Bus & Motor
Unknown
Mass
Unknown
Launch date (UTC)
1993-06-16 (32 years ago)
Launch vehicle
Unknown
Launch site
Plesetsk Missile And Space Complex (PKMTR)
Object type
Payload
Rocket body
Debris
Shape & HBR
Unknown shape, 0.1 m
Radar Cross Section
Small (<0.1 m²)

Expand to show TLE details & history
Last TLE update: 22 hours ago

TLE from 22 hours ago
0 COSMOS 2251 DEB
1 34883U 93036ACW 25307.52637924  .00011957  00000-0  29533-2 0  9999
2 34883  74.1996 135.6874 0093087 329.5284  30.0485 14.49509983858719
Epoch: 2025-11-03T12:37Z
TLE epoch observation values (Epoch: 2025-11-03T12:37:59.166Z)
Latitude
-0.00003°
Longitude
-96.83562°
Altitude
672.781 km
Speed
7.551 km/s
True Right ascension
09h 02m 44s
True Declination
0° 00' 00"
Sunlit
Object was in daylight at epoch
Visualization orbit readout
Latitude
Unknown
Longitude
Unknown
Altitude
Unknown
Speed
Unknown
Apparent Right ascension
Unknown
Apparent Declination
Unknown
Sunlit
N/A
Visualization observer readout
Local Sidereal Time
06:45:33
Azimuth
Unknown
Elevation
Unknown
Doppler factor
Unknown
Orbital elements
Apogee altitude
790.964 km
Perigee altitude
658.725 km
Semi-major axis
7,102.981 km
Eccentricity
0.00931
Inclination
74.1996°
RAAN
135.6874°
Arg. of periapsis
329.5284°
True anomaly
30.58806°
Mean anomaly
30.0485°
Eccentric anomaly
30.31773°
Mean motion
3.62562 °/min
Orbital period
99.29 mins
BSTAR
0.0029533
Loading maneuver chart data...
Computing Atmospheric mass density...

Documentation

Showing up to 5 results
|